一网星座-0154星 (ONEWEB-0154 )

导读

ONEWEB-0154是英国OneWeb公司低轨互联网卫星星座中的一颗卫星,于2021年3月25日随第5批OneWeb卫星在俄罗斯东方发射场由联盟-2.1b火箭发射升空。卫星重约147.5千克,搭载Ku/Ka波段天线与电推进系统,入轨后将逐步抬升至1200公里近地工作轨道,为全球提供高速低延迟宽带接入服务,助力缩小数字鸿沟。

基本信息
目录编号:
48045
目录名称:
ONEWEB-0154
国际标识:
2021-025D
轨道中心:
EARTH
卫星名称:
一网星座-0154星
卫星全名:
一网星座-0154星 (ONEWEB-0154 )
卫星状态:
在轨 (已飞行2000 天)
发射日期:
2021-03-25 UTC
国别 :
英国 (GB)
星等 :
--
该卫星已列入 空间交会检测服务 Space Conjunction Data Service (SCDS) ,当前飞行风险评估等级: 无高风险
轨道信息
数据来源 国际轨道数据 AOE轨道数据
星历时间 2026-09-15T11:06:38+0800
19小时前
查看轨道信息
2026-09-16T00:00:00+0800
6小时前
查看轨道信息
半长轴 7587.906km 7587.911km
偏心率 0.0001894 0.0001814
轨道倾角 87.893° 87.893°
近地点辐角 95.370° 97.012°
升交点赤经 302.331° 302.225°
平近点角 264.765° 281.136°
近地点 1208.331km 1208.397km
远地点 1211.207km 1211.151km
周期 109.633分钟 109.633分钟
每日圈数 13.134693 13.13468
详细信息
平衡模式:
三轴稳定
覆盖范围:
全球
运营商:
一网卫星公司
运营商所在国:
英国
制造商(研发单位):
一网卫星公司
制造商所在国:
英国
使用方式:
暂无
卫星简介
OneWeb卫星网络由648颗重约125公斤的微型卫星组成,运行在1200公里的轨道上。 每颗卫星都能够提供至少每秒8千兆位的吞吐量,以使用其高吞吐量的Ku频段有效载荷为家庭和移动平台提供互联网接入。该卫星仍在工作。
2D轨道图
3D轨道图
轨道高度分析图
轨道倾角分析图
轨道综合分析图
查看轨道综合分析图
与全量物体交会距离演化趋势 订阅飞行安全评估服务
与全量物体交会风险概率演化趋势 订阅飞行安全评估服务